Rbgn^[z[y[W
メイン
   新天体発見情報
     Comet C/2021 O1 (Nishimura)
投稿するにはまず登録を

スレッド表示 | 古いものから 前のトピック | 次のトピック | 下へ
投稿者 スレッド
佐藤裕久
投稿日時: 2021-7-26 0:11
モデレータ
登録日: 2005-6-12
居住地: 日本
投稿: 2701
オンライン
Comet C/2021 O1 (Nishimura)

Comet C/2021 O1 (Nishimura)

西村栄男氏(静岡県掛川市岩井寺)の通報によると、7月21.8日UT、Canon EOS 6D デジタルカメラ +  
200-mm-f.l. f/3.2 レンズで得た15秒露出3枚から彗星を見つけた。
この彗星は、拡散した2'.5の中央集光したコマが見える。
彼は、近くの8P/Tuttleのアウトバーストではないかと疑ったが、7月22.8日に得た観測からこの彗星
を確認した。
なお、西村氏はC/1994 N1 (Nakamura-Nishimura-Machholz)の共同発見者です。
小惑星センターのPCCP webpageに公表後、田中利彦氏(伊賀上野:D78)、Michael Jaeger (オースト
リア:A71)、門田健一氏(上尾:349)、佐藤裕久(須賀川:Q23)、吉本勝己氏(平生:P87)、Artyom Novichonok
(ロシア-ウズベキスタン:I86)、金子静夫氏(掛川)、野口敏秀氏(香取:Q24)、安部裕史氏(八束:367)、
板垣公一氏(岡山)、高橋俊幸氏(栗原:D95)、野原秀憲氏(南宇都宮:Q21)、吉見政義氏(福知山)ら多くの
国内外の位置観測者によって彗星と確認された。
また、張替 憲氏(船橋)によって7月18日、19日UTに得た発見前の観測が確認された。

彗星機能の報告は次のとおり、

OC   Date        Reporter           Coma    Tail    PA          Exposures
D78  2021-07-23  H. Sato            1'.2                          2x20s
A71  2021-07-24  M. Jaeger          130"     300"   287          20x30s
349  2021-07-24  K. Kadota           3'       2'    285
Q23  2021-07-24  H. Sato            1'.4     1'.1   289           5x30s
P87  2021-07-24  K. Yoshimoto        60"                         14x15s
186  2021-07-24  A. Novichonok      1'.5"

発見位置は次のとおり、

     2021 UT             R.A. (2000) Decl.       Mag.   Observer
     July 21.78306    6 31 33.5    +30 37 52     10.7   Nishimura
          21.78328    6 31 33.5    +30 37 55              "
          21.78350    6 31 33.8    +30 37 54              "
          22.77352    6 37 45.0    +30 48 30     10.2     "
          22.77448    6 37 45.3    +30 48 30              "
          22.77491    6 37 45.4    +30 48 29              "
          22.77522    6 37 45.1    +30 48 32              "
          22.77576    6 37 46.3    +30 48 34              "
          22.78293    6 37 48.4    +30 48 30              "
          22.78337    6 37 48.2    +30 48 44              "

確認位置は次のとおり、

     2021 UT             R.A. (2000) Decl.            Observer
     July 22.77791    6 37 46.7    +30 48 28          Kaneko
          22.77879    6 37 46.6    +30 48 33              "
          22.78050    6 37 47.5    +30 48 36              "
          22.78197    6 37 48.4    +30 48 44              "
          22.78344    6 37 48.8    +30 48 32              "
          22.78397    6 37 48.9    +30 48 33              "

     2021 UT             R.A. (2000) Decl.       Mag.   Observer
     July 23.76476    6 44 00.49   +30 57 58.4    9.9   Noguchi
          23.76767    6 44 01.69   +30 57 59.0            "
          23.77082    6 44 02.93   +30 58 00.7            "
          23.77447    6 44 04.23   +30 58 03.2            "
          23.77672    6 44 05.09   +30 58 04.4            "

     2021 UT             R.A. (2000) Decl.       Mag.   Observer
     July 23.78872    6 44 09.60   +30 58 11.5   10.2   Abe
          23.78912    6 44 09.74   +30 58 12.4           "
          23.79682    6 44 12.82   +30 58 14.9           "
          23.79763    6 44 13.15   +30 58 15.5           "

     2021 UT             R.A. (2000) Decl.       Mag.   Observer
     July 23.79243    6 44 11.04   +30 58 12.5   10.1   Tanaka
          23.79490    6 44 11.94   +30 58 14.5           "

     2021 UT             R.A. (2000) Decl.       Mag.   Observer
     July 23.79353    6 44 11.45   +30 58 13.2   11.9   Itagaki
          23.79380    6 44 11.55   +30 58 14.3            "
          23.79431    6 44 11.75   +30 58 14.1            "
          23.79458    6 44 11.92   +30 58 15.3            "

     2021 UT             R.A. (2000) Decl.       Mag.   Observer
     July 24.07144    6 45 57.58   +31 00 37.8   11.2   Jaeger
          24.07719    6 45 59.68   +31 00 42.1   11.4     "
          24.07896    6 46 00.42   +31 00 42.3   11.3     "
          24.08116    6 46 01.19   +31 00 43.6   11.4     "
          24.08379    6 46 02.19   +31 00 45.4   11.3     "
          24.08627    6 46 03.32   +31 00 45.0   11.7     "

     2021 UT             R.A. (2000) Decl.       Mag.   Observer
     July 24.76344    6 50 22.80   +31 06 22.4    9.8   Kadota
          24.76568    6 50 23.63   +31 06 24.0            "
          24.76794    6 50 24.52   +31 06 24.9            "
          24.77193    6 50 26.07   +31 06 26.5            "
          24.77420    6 50 26.91   +31 06 27.8            "

     2021 UT             R.A. (2000) Decl.       Mag.   Observer
     July 24.76397    6 50 23.03   +31 06 22.6   10.0   Sato
          24.77008    6 50 25.40   +31 06 25.3            "
          24.77497    6 50 27.28   +31 06 27.8            "

     2021 UT             R.A. (2000) Decl.       Mag.   Observer
     July 24.78464    6 50 31.01   +31 06 33.4   11.8   Yoshimi
          24.78589    6 50 31.44   +31 06 33.0            "
          24.78660    6 50 31.84   +31 06 32.7            "

     2021 UT             R.A. (2000) Decl.       Mag.   Observer
     July 24.80515    6 50 38.84   +31 06 42.1   10.3   Yoshimoto
          24.80677    6 50 39.41   +31 06 43.9            "
          24.80959    6 50 40.52   +31 06 43.9            "

     2021 UT             R.A. (2000) Decl.       Mag.   Observer
     July 18.75417    6 13 04.5    +29 59 33     10.5   Harikae
          19.75764    6 19 09.6    +30 13 38              "

MPCの暫定放物線軌道要素、位置推算表は次のとおり、

Orbital elements:
    C/2021 O1 (Nishimura)                                                       
T 2021 Aug. 12.93249 TT                                 Rudenko                 
q   0.7965502            (2000.0)            P               Q                  
                   Peri.   72.64711     -0.33375951     -0.89292731             
                   Node    41.17165     +0.59156189     -0.44794502             
e   1.0            Incl.   27.31939     +0.73393401     -0.04501192             
From 46 observations 2021 July 21-24.                                           
                                                                                
Ephemeris:
Date    TT    R. A. (2000) Decl.     Delta      r    Elong.  Phase   m1
2021 06 25    04 14 36.4 +21 38 48   2.0068  1.2042    27.8    23.1  12.8
...
2021 07 10    05 23 51.2 +27 24 26   1.8318  1.0211    26.0    25.9  11.9
...
2021 07 18    06 08 34.1 +29 48 17   1.7650  0.9366    24.3    26.5  11.4
...
2021 07 24    06 45 29.6 +31 00 06   1.7299  0.8829    22.6    26.2  11.1
2021 07 25    06 51 53.2 +31 08 14   1.7254  0.8750    22.3    26.1  11.1
2021 07 26    06 58 20.3 +31 15 10   1.7212  0.8674    22.0    26.0  11.1
...
2021 08 01    07 37 58.7 +31 29 21   1.7047  0.8289    20.1    24.9  10.8
...
2021 08 09    08 31 36.0 +30 29 37   1.7049  0.8002    17.6    22.6  10.7
...
2021 08 24    10 04 33.2 +24 58 29   1.7696  0.8244    13.9    17.1  10.9

(MPEC 2021-O47、CBET 5004)

スレッド表示 | 古いものから 前のトピック | 次のトピック | トップ

投稿するにはまず登録を
 
© 1999 Tsutomu Seki.